Weather History for KLSE - September, 2013

Change the Weather History Date:

Tuesday, September 17, 2013

  Actual Average Record
Temperature  
Mean Temperature 56 °F 62 °F  
Max Temperature 65 °F 73 °F 93 °F (1955)
Min Temperature 47 °F 52 °F 33 °F (1916)
Degree Days  
Heating Degree Days 9 5  
Month to date heating degree days 34 47  
Since 1 July heating degree days 48 67  
Cooling Degree Days 0 2  
Month to date cooling degree days 103 58  
Year to date cooling degree days 888 758  
Growing Degree Days 5 (Base 50)    
Moisture  
Dew Point 50 °F    
Average Humidity 75    
Maximum Humidity 86    
Minimum Humidity 63    
Precipitation  
Precipitation 0.09 in 0.12 in 1.74 in (1942)
Month to date precipitation 0.90 2.08  
Year to date precipitation 28.05 26.04  
Snow  
Snow 0.00 in 0.00 in 0.00 in (2002)
Month to date snowfall 0.0 0.0  
Since 1 July snowfall T 0.0  
Snow Depth 0.00 in    
Sea Level Pressure  
Sea Level Pressure 30.19 in    
Wind  
Wind Speed 6 mph (SE)    
Max Wind Speed 14 mph    
Max Gust Speed 16 mph    
Visibility 10 miles    
Events Rain    
T = Trace of Precipitation, MM = Missing Value Source: NWS Daily Summary

Daily Weather History Graph

Daily Weather History Graph

Search for Another Location

Airport or City:

Trip Planner

Search our weather history database for the weather conditions in past years. The results will help you decide how hot, cold, wet, or windy it might be!

Date:

Astronomy

Sep. 17, 2013 Rise Set
Actual Time 6:46 AM CDT 7:11 PM CDT
Civil Twilight 6:17 AM CDT 7:39 PM CDT
Nautical Twilight 5:43 AM CDT 8:13 PM CDT
Astronomical Twilight 5:08 AM CDT 8:48 PM CDT
Moon 5:59 PM CDT (9/17) 4:38 AM CDT (9/17)
Length of Visible Light 13h 22m
Length of Day
12h 24m
Waxing Gibbous, 96% of the Moon is Illuminated
Sep 17
Waxing Gibbous
Sep 19
Full
Sep 26
Last Quarter
Oct 4
New
Oct 11
First Quarter

Hourly Weather History & Observations

Time (CDT) Temp. Dew Point Humidity Pressure Visibility Wind Dir Wind Speed Gust Speed Precip Events Conditions
12:53 AM 50.0 °F 43.0 °F 77% 30.32 in 10.0 mi ESE 5.8 mph - N/A   Clear
1:53 AM 48.9 °F 43.0 °F 80% 30.32 in 10.0 mi ESE 5.8 mph - N/A   Clear
2:53 AM 48.9 °F 43.0 °F 80% 30.32 in 10.0 mi ESE 4.6 mph - N/A   Clear
3:53 AM 48.9 °F 43.0 °F 80% 30.31 in 10.0 mi SE 3.5 mph - N/A   Clear
4:53 AM 48.0 °F 43.0 °F 83% 30.30 in 10.0 mi ESE 4.6 mph - N/A   Clear
5:53 AM 46.9 °F 43.0 °F 86% 30.30 in 10.0 mi ESE 6.9 mph - N/A   Clear
6:53 AM 48.0 °F 43.0 °F 83% 30.30 in 10.0 mi ESE 5.8 mph - N/A   Clear
7:53 AM 48.9 °F 44.1 °F 83% 30.30 in 10.0 mi ESE 6.9 mph - N/A   Clear
8:53 AM 50.0 °F 45.0 °F 83% 30.30 in 10.0 mi East 5.8 mph - N/A   Clear
9:53 AM 53.1 °F 46.9 °F 80% 30.28 in 10.0 mi SE 4.6 mph - N/A   Clear
10:53 AM 57.0 °F 48.9 °F 74% 30.25 in 10.0 mi ESE 4.6 mph - N/A   Clear
11:53 AM 61.0 °F 48.9 °F 64% 30.22 in 10.0 mi Calm Calm - N/A   Clear
12:53 PM 63.0 °F 50.0 °F 63% 30.21 in 10.0 mi SSW 5.8 mph - N/A   Clear
1:53 PM 63.0 °F 51.1 °F 65% 30.19 in 10.0 mi South 8.1 mph - N/A   Partly Cloudy
2:53 PM 64.0 °F 52.0 °F 65% 30.16 in 10.0 mi South 6.9 mph - N/A   Mostly Cloudy
3:53 PM 63.0 °F 54.0 °F 72% 30.13 in 10.0 mi South 5.8 mph - 0.00 in Rain Light Rain
4:53 PM 62.1 °F 55.9 °F 80% 30.11 in 9.0 mi ESE 4.6 mph - 0.01 in Rain Light Rain
5:53 PM 61.0 °F 55.0 °F 81% 30.10 in 10.0 mi SSE 11.5 mph - 0.01 in   Overcast
6:53 PM 60.1 °F 55.0 °F 83% 30.08 in 10.0 mi SE 10.4 mph - N/A   Overcast
7:53 PM 60.1 °F 55.0 °F 83% 30.06 in 10.0 mi ESE 8.1 mph - N/A   Overcast
8:53 PM 60.1 °F 55.0 °F 83% 30.05 in 10.0 mi ESE 5.8 mph - N/A   Overcast
9:39 PM 60.8 °F 55.4 °F 82% 30.03 in 4.0 mi ESE 3.5 mph - 0.01 in Rain Heavy Rain
9:53 PM 60.1 °F 55.9 °F 86% 30.04 in 10.0 mi ESE 3.5 mph - 0.07 in Rain Light Rain
10:53 PM 62.1 °F 57.0 °F 84% 30.02 in 10.0 mi SSE 8.1 mph - 0.00 in   Overcast
11:53 PM 63.0 °F 57.0 °F 81% 30.00 in 10.0 mi SSE 6.9 mph - N/A   Overcast